Location: Cucq
(50.4773°N, 1.6202°E)
Time: 16:40:57
(UTC+00:00)

Cosmos 1782 Rocket - Pass Details

Date: 07 August 2020
Orbit: 608 x 631 km, 82.5° (Epoch: 25 September)

Event Time Altitude Azimuth Distance (km) Brightness Sun altitude
Exits shadow 00:12:52 59° 109° (ESE) 707 3.7 -23.1°
Maximum altitude 00:13:03 60° 96° (E) 703 3.7 -23.1°
Drops below altitude 10° 00:17:20 10° 17° (NNE) 1,974 7.2 -23.1°
Sets 00:19:35 0° 14° (NNE) 2,882 8.4 -23.0°
